GW0416 Weather Reports


Display with metric or nautical units.
time (UTC)temp
F
wind
direction
speed
MPH
gust
MPH
rain 1hr
in
rain 24hr
in
rain mn
in
humidity
%
barometer
mb
20260510070028 45 11 4.0 5.0 0.00 0.00 0.00 79 1018.8
20260510064544 47 26 5.0 8.0 0.00 0.00 0.00 78 1018.8
20260510063032 46 115 2.0 11.0 0.00 0.00 0.00 81 1018.8
20260510061533 47 44 3.0 6.0 0.00 0.00 0.00 76 1018.9
20260510060030 48 167 4.0 8.0 0.00 0.00 0.00 77 1018.7
20260510054528 48 167 5.0 9.0 0.00 0.00 0.00 76 1018.8
20260510053041 49 152 7.0 9.0 0.00 0.00 0.00 76 1018.7
20260510051545 48 156 6.0 10.0 0.00 0.00 0.00 77 1018.6
20260510050031 48 141 6.0 9.0 0.00 0.00 0.00 77 1018.7
20260510044530 49 154 6.0 10.0 0.00 0.00 0.00 77 1018.6
20260510043030 49 136 7.0 11.0 0.00 0.00 0.00 76 1018.6
20260510041531 49 144 6.0 9.0 0.00 0.00 0.00 75 1018.6
20260510040036 50 130 7.0 10.0 0.00 0.00 0.00 73 1018.6
20260510034532 51 132 8.0 10.0 0.00 0.00 0.00 72 1018.4
20260510033032 51 130 6.0 9.0 0.00 0.00 0.00 70 1018.3
20260510031531 53 136 7.0 9.0 0.00 0.00 0.00 67 1018.1
20260510030031 54 113 6.0 9.0 0.00 0.00 0.00 66 1018.1
20260510024530 55 113 7.0 10.0 0.00 0.00 0.00 62 1017.8
20260510023030 57 117 8.0 10.0 0.00 0.00 0.00 60 1017.6
20260510021533 58 102 7.0 10.0 0.00 0.00 0.00 57 1017.6
20260510020032 59 121 7.0 9.0 0.00 0.00 0.00 56 1017.6
20260510014530 60 84 5.0 11.0 0.00 0.00 0.00 54 1017.6
20260510013034 61 64 7.0 11.0 0.00 0.00 0.00 53 1017.7
20260510011532 61 51 4.0 9.0 0.00 0.00 0.00 49 1017.6
20260510010030 63 266 7.0 12.0 0.00 0.00 0.00 48 1017.8
20260510004531 63 243 5.0 12.0 0.00 0.00 0.00 45 1017.8
20260510003031 63 227 10.0 14.0 0.00 0.00 0.00 44 1017.7
20260510001531 63 243 9.0 13.0 0.00 0.00 0.00 43 1017.7
20260510000031 63 251 10.0 15.0 0.00 0.00 0.00 42 1017.6
20260509234530 63 204 5.0 8.0 0.00 0.00 0.00 42 1017.5
20260509233032 63 248 5.0 8.0 0.00 0.00 0.00 41 1017.7
20260509231533 64 166 2.0 6.0 0.00 0.00 0.00 41 1017.7
20260509230032 63 257 4.0 8.0 0.00 0.00 0.00 42 1017.7
20260509224531 63 198 4.0 8.0 0.00 0.00 0.00 42 1017.8
20260509223028 62 244 3.0 10.0 0.00 0.00 0.00 42 1018.0
20260509221530 63 291 3.0 7.0 0.00 0.00 0.00 41 1017.9
20260509220038 62 239 5.0 12.0 0.00 0.00 0.00 41 1017.9
20260509214532 62 324 3.0 8.0 0.00 0.00 0.00 40 1018.0
20260509213033 62 242 9.0 12.0 0.00 0.00 0.00 41 1018.1
20260509211531 62 240 2.0 13.0 0.00 0.00 0.00 40 1018.1
20260509210031 62 263 4.0 9.0 0.00 0.00 0.00 40 1018.1
20260509204531 63 187 0.0 7.0 0.00 0.00 0.00 39 1018.1
20260509203036 62 269 5.0 14.0 0.00 0.00 0.00 39 1018.0
20260509201530 61 0 1.0 7.0 0.00 0.00 0.00 40 1017.9
20260509200038 62 146 3.0 11.0 0.00 0.00 0.00 40 1017.9
20260509194545 62 307 4.0 8.0 0.00 0.00 0.00 40 1018.0
20260509193036 61 232 8.0 12.0 0.00 0.00 0.00 40 1018.2
20260509191533 61 60 1.0 9.0 0.00 0.00 0.00 40 1018.1
20260509190032 61 257 3.0 10.0 0.00 0.00 0.00 41 1018.1
20260509184536 61 37 2.0 6.0 0.00 0.00 0.00 39 1018.0
20260509183048 61 213 1.0 10.0 0.00 0.00 0.00 40 1018.1
20260509181530 61 300 5.0 9.0 0.00 0.00 0.00 39 1018.0
20260509180031 61 95 3.0 6.0 0.00 0.00 0.00 39 1018.0
20260509174543 60 276 2.0 9.0 0.00 0.00 0.00 41 1017.9
20260509173030 59 295 2.0 10.0 0.00 0.00 0.00 41 1017.8
20260509171540 59 271 5.0 11.0 0.00 0.00 0.00 42 1017.8
20260509170033 59 168 2.0 9.0 0.00 0.00 0.00 41 1017.6
20260509164534 60 342 10.0 14.0 0.00 0.00 0.00 39 1017.6
20260509163043 60 350 7.0 13.0 0.00 0.00 0.00 39 1017.5
20260509161541 59 35 6.0 11.0 0.00 0.00 0.00 43 1017.4
20260509160030 58 42 2.0 11.0 0.00 0.00 0.00 45 1017.2
20260509154530 58 360 5.0 10.0 0.00 0.00 0.00 47 1017.1
20260509153044 57 49 5.0 9.0 0.00 0.00 0.00 48 1017.0
20260509151536 56 57 3.0 8.0 0.00 0.00 0.00 50 1017.1
20260509150039 55 36 3.0 6.0 0.00 0.00 0.00 51 1016.9
20260509144531 54 23 4.0 5.0 0.00 0.00 0.00 52 1016.8
20260509143034 53 322 1.0 4.0 0.00 0.00 0.00 54 1016.7
20260509141530 52 23 3.0 8.0 0.00 0.00 0.00 55 1016.7
20260509140035 51 20 5.0 8.0 0.00 0.00 0.00 55 1016.5
20260509134532 50 23 7.0 10.0 0.00 0.00 0.00 56 1016.4
20260509133032 50 33 6.0 9.0 0.00 0.00 0.00 57 1016.3
20260509131532 50 22 8.0 13.0 0.00 0.00 0.00 57 1016.2
20260509130031 49 17 5.0 8.0 0.00 0.00 0.00 57 1016.0
20260509124532 49 36 4.0 8.0 0.00 0.00 0.00 57 1015.8
20260509123035 50 279 3.0 7.0 0.00 0.00 0.00 57 1015.6
20260509121533 49 360 9.0 13.0 0.00 0.00 0.00 57 1015.5
20260509120031 50 26 3.0 6.0 0.00 0.00 0.00 57 1015.3
20260509114530 50 257 2.0 4.0 0.00 0.00 0.00 56 1015.1
20260509113030 50 194 4.0 6.0 0.00 0.00 0.00 56 1015.0
20260509111530 50 123 3.0 11.0 0.00 0.00 0.00 55 1014.9
20260509110031 51 38 4.0 12.0 0.00 0.00 0.00 55 1014.3
20260509104533 51 13 6.0 8.0 0.00 0.00 0.00 55 1014.1
20260509103028 51 27 8.0 12.0 0.00 0.00 0.00 55 1014.0
20260509101530 51 24 8.0 10.0 0.00 0.00 0.00 55 1013.9
20260509100030 51 5 5.0 10.0 0.00 0.00 0.00 55 1013.7
20260509094531 52 24 8.0 10.0 0.00 0.00 0.00 55 1013.6
20260509093039 51 38 6.0 9.0 0.00 0.00 0.00 55 1013.6
20260509091529 53 19 8.0 12.0 0.00 0.00 0.00 53 1013.5
20260509090029 53 38 6.0 11.0 0.00 0.00 0.00 54 1013.3
20260509084532 52 30 7.0 9.0 0.00 0.00 0.00 54 1013.2
20260509083032 54 53 7.0 10.0 0.00 0.00 0.00 53 1013.0
20260509081532 53 56 5.0 8.0 0.00 0.00 0.00 52 1013.1
20260509080031 54 69 4.0 8.0 0.00 0.00 0.00 52 1012.9
20260509074530 54 51 5.0 9.0 0.00 0.00 0.00 51 1012.8
20260509073029 55 51 8.0 12.0 0.00 0.00 0.00 50 1012.7
20260509071533 54 57 11.0 15.0 0.00 0.00 0.00 51 1012.3